Find Starlink 5282

NORAD ID: 54169 Int'l Des: 2022-141 Owner: SPXS Country: US Constellation: starlink operational
LEOCIRCULAR

Current View

Loading 3D Globe...

About Starlink 5282

Starlink 5282 (NORAD 54169) is a starlink constellation satellite (v1.5) launched Oct 28, 2022 by SPXS of US. It operates in LEO, CIRCULAR orbit with a mass of 305.00 kg.

Upcoming Passes

Passes for default location (London). Set your location on the main map for personalized predictions.

Altitude History

Loading altitude history...

Two-Line Element Set

1 54169U 22141N 26230.04237727 .00000440 00000-0 24151-4 0 9995
2 54169 53.1621 350.3973 0001097 84.3287 275.7841 15.34389162210340
Epoch: Aug 18, 2026 • Age: 16 hours

Current Status

Altitude 468.5 km
Apogee / Perigee N/A
Velocity 7.64 km/s
Sub-Earth Point 52.93°N, 154.54°W
Launch Date Oct 28, 2022
Age 3.8 years
Type internet

Technical Details

Classification Payload
Mass 305.00 kg
Dry Mass 290.00 kg
Total Mass 305.00 kg
Length 0.20 m
Diameter 2.80 m
Span 9.00 m
Shape Box + pan
Manufacturer SPXS
Bus Type Starlink
Phase Status In Orbit
Owner/State SPXS/US

Most Searched